Location: D�rnast
(49.6426°N, 11.9755°E)
Time: 02:00:38
(UTC+00:00)

BlueWalker 3 - Pass Details

Date: 02 December 2022
Orbit: 499 x 517 km, 53.2° (Epoch: 26 January)

Event Time Altitude Azimuth Distance (km) Brightness Sun altitude
Rises 17:29:02 0° 283° (WNW) 2,632 6.8 -20.9°
Reaches altitude 10° 17:31:18 10° 289° (WNW) 1,740 5.5 -21.3°
Enters shadow 17:34:57 50° 355° (N) 661 2.4 -21.9°
